Location: Waltman Observatory
(32.5145°N, 90.4450°W)
Time: 00:04:01
(UTC-05:00)

Amateur Radio Satellites - All Passes

Search period start: 23 August 2016 23:34
Search period end: 24 August 2016 23:34
Location: Waltman Observatory, 32.5145°N, 90.4450°W

Satellite Date Start Highest point End Downlink Frequencies (MHz)
Time Altitude Azimuth
AIST 2 23 Aug 23:39:12 23:43:10 42° 246° (WSW) 23:47:06 435.215
AISAT 23 Aug 23:44:11 23:48:21 42° 73° (ENE) 23:52:34 437.250
SPROUT 23 Aug 23:49:10 23:52:23 21° 70° (ENE) 23:55:37 437.525
QB50P1 23 Aug 23:50:27 23:53:47 23° 96° (E) 23:57:07 145.935-145.965
HUMSAT D 23 Aug 23:51:58 23:53:04 11° 267° (W) 23:54:11 437.325/437.525
UNISAT 6 23 Aug 23:58:21 00:02:09 30° 288° (WNW) 00:05:52 437.425
POPSAT HIP 1 23 Aug 23:59:45 00:03:26 29° 98° (E) 00:07:04 437.405
BUGSAT 1 24 Aug 00:12:26 00:14:31 14° 94° (E) 00:16:34 437.445
UKube-1 24 Aug 00:17:16 00:21:26 50° 75° (ENE) 00:25:38 .
CUSAT 1 24 Aug 00:19:48 00:22:23 87° 92° (E) 00:25:17 437.405
JAS-2 24 Aug 00:25:42 00:31:53 35° 98° (E) 00:38:36 435.910
TISAT 1 24 Aug 00:26:43 00:27:47 11° 66° (ENE) 00:28:51 437.305
QB50P2 24 Aug 00:28:32 00:32:46 76° 101° (ESE) 00:36:58 145.880/145.840
POLYITAN 1 24 Aug 00:31:05 00:35:19 78° 103° (ESE) 00:39:29 437.675
VELOX 1 24 Aug 00:31:53 00:36:11 52° 260° (W) 00:40:32 145.980
DUCHIFAT 1 24 Aug 00:32:23 00:36:34 68° 101° (E) 00:40:42 145.980
SO-50 24 Aug 00:33:30 00:38:19 66° 116° (ESE) 00:43:08 436.795
DANDE 24 Aug 00:35:34 00:37:43 21° 95° (E) 00:39:47 436.750
ANTELSAT 24 Aug 00:37:31 00:39:01 12° 293° (WNW) 00:40:31 437.575/2403.000
RS-15 24 Aug 00:43:22 00:52:13 27° 102° (ESE) 01:01:22 29.354- 29.394
NANOSAT C BR1 24 Aug 00:43:57 00:48:10 78° 283° (WNW) 00:52:20 145.865
O/OREOS (USA 219) 24 Aug 00:45:06 00:49:19 35° 66° (ENE) 00:53:31 437.305
CUBEBUG 1 24 Aug 00:46:14 00:50:00 28° 263° (W) 00:53:49 437.445
50 SAT 24 Aug 00:48:07 00:51:05 24° 263° (W) 00:54:04 437.505
ESTCUBE 1 24 Aug 00:55:55 00:58:29 15° 266° (W) 01:01:03 437.505/2401.250
DX 1 24 Aug 01:04:40 01:08:32 31° 262° (W) 01:12:26 434.975-435.025
GONETS M04 24 Aug 01:09:16 01:17:28 44° 272° (W) 01:25:38
AISAT 24 Aug 01:22:52 01:24:59 13° 267° (W) 01:27:06 437.250
Cosmos 2499 24 Aug 01:22:58 01:29:23 39° 271° (W) 01:35:51 435.465 / 435.565
SPROUT 24 Aug 01:24:32 01:28:08 26° 263° (W) 01:31:46 437.525
QB50P1 24 Aug 01:26:09 01:29:26 22° 289° (WNW) 01:32:42 145.935-145.965
POPSAT HIP 1 24 Aug 01:36:07 01:38:57 18° 291° (WNW) 01:41:46 437.405
BUGSAT 1 24 Aug 01:46:11 01:49:58 35° 287° (WNW) 01:53:41 437.445
UKube-1 24 Aug 01:57:00 01:57:42 10° 267° (W) 01:58:23 .
TISAT 1 24 Aug 01:58:48 02:02:55 51° 260° (W) 02:07:04 437.305
ITUPSAT 1 24 Aug 02:04:22 02:08:23 28° 70° (ENE) 02:12:24 437.325
JAS-2 24 Aug 02:10:40 02:16:46 38° 289° (WNW) 02:23:28 435.910
SO-50 24 Aug 02:16:40 02:19:12 14° 311° (NW) 02:21:44 436.795
O/OREOS (USA 219) 24 Aug 02:25:27 02:28:23 17° 260° (W) 02:31:18 437.305
PHONESAT 2.4 24 Aug 02:34:40 02:37:10 24° 145° (SE) 02:39:41 2401.200-2431.200
Oscar 19 24 Aug 02:35:50 02:41:03 82° 285° (WNW) 02:46:15 437.125/150
SWISSCUBE 24 Aug 02:38:59 02:43:45 79° 76° (ENE) 02:48:30 437.505
RS-15 24 Aug 02:52:06 03:03:28 71° 301° (WNW) 03:15:33 29.354- 29.394
BEESAT 24 Aug 02:56:38 03:01:23 74° 257° (WSW) 03:06:09 436.000
Gurwin Techsat 1B 24 Aug 03:11:49 03:17:09 84° 284° (WNW) 03:22:27 435.225
ITAMSAT 1 24 Aug 03:40:40 03:45:43 52° 101° (E) 03:50:45 435.822/435.867
ITUPSAT 1 24 Aug 03:42:19 03:46:07 24° 263° (W) 03:49:57 437.325
MOZHAYETS 4 24 Aug 03:48:04 03:52:28 48° 74° (ENE) 03:56:51
PHONESAT 2.4 24 Aug 04:10:33 04:13:26 42° 339° (NNW) 04:16:18 2401.200-2431.200
AO-7 24 Aug 04:12:54 04:20:50 47° 102° (ESE) 04:28:40 29.400- 29.500
KKS-1 24 Aug 04:12:55 04:17:23 77° 75° (ENE) 04:21:52 437.445
Cosmos 2491 24 Aug 04:48:55 04:54:42 19° 69° (ENE) 05:00:28 435.465 / 435.565
CUBESAT XI-V 24 Aug 04:57:03 05:01:04 31° 72° (ENE) 05:05:06 437.345
STARS 24 Aug 05:00:29 05:04:52 62° 258° (WSW) 05:09:16 437.465
RS-15 24 Aug 05:10:35 05:18:39 20° 327° (NNW) 05:26:59 29.354- 29.394
ITAMSAT 1 24 Aug 05:21:45 05:24:42 16° 295° (WNW) 05:27:40 435.822/435.867
MOZHAYETS 4 24 Aug 05:28:03 05:29:49 12° 267° (W) 05:31:36
HORYU 2 24 Aug 05:31:23 05:35:21 32° 98° (E) 05:39:17 437.375
PHONESAT 2.4 24 Aug 05:48:05 05:50:15 18° 355° (N) 05:52:25 2401.200-2431.200
BRITE-PL 24 Aug 05:48:58 05:53:32 24° 94° (E) 05:57:58 437.365/2234.400
YUBILEINY 24 Aug 05:58:26 06:05:26 27° 84° (E) 06:12:26 435.215
AO-7 24 Aug 06:06:06 06:13:15 34° 297° (WNW) 06:20:24 29.400- 29.500
NOAA 15 24 Aug 06:06:35 06:10:10 18° 95° (E) 06:13:46 137.62
AO-85 24 Aug 06:11:07 06:16:25 62° 115° (ESE) 06:21:32 145.980
STRAND 1 24 Aug 06:16:52 06:18:47 12° 64° (ENE) 06:20:40 437.568
LilacSat-2 24 Aug 06:27:46 06:30:25 18° 95° (E) 06:33:03 437.200
CUBESAT XI-V 24 Aug 06:35:08 06:38:26 19° 265° (W) 06:41:45 437.345
Cosmos 2491 24 Aug 06:43:31 06:52:20 76° 267° (W) 07:01:07 435.465 / 435.565
Cosmos 2504 24 Aug 06:53:11 06:59:01 21° 84° (E) 07:04:37 435.465 / 435.565
HORYU 2 24 Aug 07:08:40 07:11:37 18° 292° (WNW) 07:14:33 437.375
Cubesat XI-IV 24 Aug 07:16:51 07:22:11 74° 102° (ESE) 07:27:29 437.490
GOMX 1 24 Aug 07:23:36 07:29:04 87° 285° (WNW) 07:34:16 467.674
PHONESAT 2.4 24 Aug 07:24:49 07:27:14 22° 12° (NNE) 07:29:40 2401.200-2431.200
BRITE-PL 24 Aug 07:26:44 07:31:59 39° 288° (WNW) 07:37:08 437.365/2234.400
CUTE-I 24 Aug 07:30:05 07:35:23 81° 286° (WNW) 07:40:42 437.470
NOAA 18 24 Aug 07:35:36 07:41:05 83° 285° (WNW) 07:46:32 137.9125
RS-15 24 Aug 07:36:44 07:38:44 10° 5° (N) 07:40:45 29.354- 29.394
CANX-2 24 Aug 07:44:34 07:45:51 11° 93° (E) 07:47:08 2200.000
NOAA 15 24 Aug 07:45:04 07:50:04 44° 288° (WNW) 07:55:04 137.62
DOVE 4 24 Aug 07:51:03 07:56:10 79° 102° (ESE) 08:00:57 437.250
CUTE 1.7 + AOD 2 24 Aug 07:51:18 07:52:47 12° 93° (E) 07:54:18 437.475
STRAND 1 24 Aug 07:52:15 07:57:20 66° 258° (WSW) 08:02:25 437.568
YUBILEINY 24 Aug 07:53:04 08:01:38 54° 280° (W) 08:10:15 435.215
AO-85 24 Aug 07:53:54 07:57:13 17° 309° (NW) 08:00:27 145.980
LilacSat-2 24 Aug 08:01:42 08:04:37 21° 288° (WNW) 08:07:30 437.200
PRISM 24 Aug 08:05:34 08:07:47 14° 68° (ENE) 08:10:01 437.425
COMPASS 1 24 Aug 08:18:26 08:19:37 11° 93° (E) 08:20:48 437.405
HO-68 24 Aug 08:34:52 08:41:47 49° 101° (E) 08:48:38 435.675
Cosmos 2504 24 Aug 08:43:02 08:51:40 68° 278° (W) 08:59:48 435.465 / 435.565
Cosmos 2491 24 Aug 08:46:37 08:47:35 10° 283° (WNW) 08:48:33 435.465 / 435.565
Cubesat XI-IV 24 Aug 08:59:55 09:01:33 11° 297° (WNW) 09:03:11 437.490
PHONESAT 2.4 24 Aug 09:00:52 09:03:51 88° 17° (NNE) 09:06:51 2401.200-2431.200
CINEMA 3 24 Aug 09:01:26 09:05:57 65° 284° (WNW) 09:10:14 145.822/145.860
SEEDS 24 Aug 09:04:24 09:08:35 69° 100° (E) 09:12:47 437.485
SO-50 24 Aug 09:10:33 09:13:37 17° 51° (NE) 09:16:38 436.795
ISS 24 Aug 09:16:53 09:19:48 31° 130° (SE) 09:22:43 145.825
CANX-2 24 Aug 09:17:50 09:21:52 44° 285° (WNW) 09:25:54 2200.000
CUTE 1.7 + AOD 2 24 Aug 09:24:47 09:28:47 43° 286° (WNW) 09:32:47 437.475
AIST 1 24 Aug 09:36:43 09:40:40 36° 91° (E) 09:44:39
PRISM 24 Aug 09:39:03 09:42:46 34° 262° (W) 09:46:29 437.425
CUBEBUG 2 24 Aug 09:46:11 09:50:26 77° 283° (WNW) 09:54:34 437.445
AAUSAT CUBESAT 2 24 Aug 09:47:11 09:51:18 66° 284° (WNW) 09:55:25 437.432
RS-15 24 Aug 09:48:11 09:58:01 26° 40° (NE) 10:07:42 29.354- 29.394
COMPASS 1 24 Aug 09:51:21 09:55:19 44° 285° (WNW) 09:59:18 437.405
UWE-3 24 Aug 09:52:14 09:56:26 80° 101° (E) 10:00:34 435.000/436.395/437.385
ANTELSAT 24 Aug 09:53:00 09:56:49 25° 71° (ENE) 10:00:34 437.575/2403.000
Oscar 11 24 Aug 09:54:36 09:58:48 50° 100° (E) 10:02:59 145.826/435.025
FUNcube-1 24 Aug 09:56:42 10:00:44 48° 100° (E) 10:04:42 145.935
ZACube-1 24 Aug 10:15:50 10:20:00 86° 285° (WNW) 10:24:07 437.345
BEESAT 2 24 Aug 10:16:39 10:19:21 18° 110° (ESE) 10:22:04 435.950
HO-68 24 Aug 10:23:20 10:29:04 27° 296° (WNW) 10:34:48 435.675
TIGRISAT 24 Aug 10:24:15 10:28:48 55° 75° (ENE) 10:33:18 435.000
DELFI C3 24 Aug 10:24:33 10:28:23 44° 99° (E) 10:32:13 145.870
PHONESAT 2.4 24 Aug 10:39:04 10:39:52 11° 219° (SW) 10:40:41 2401.200-2431.200
QB50P1 24 Aug 10:41:23 10:41:47 10° 66° (ENE) 10:42:11 145.935-145.965
BEESAT 3 24 Aug 10:41:26 10:45:20 84° 118° (ESE) 10:49:16 437.485
POPSAT HIP 1 24 Aug 10:49:20 10:51:19 13° 67° (ENE) 10:53:18 437.405
SO-50 24 Aug 10:50:00 10:54:16 41° 247° (WSW) 10:58:26 436.795
UNISAT 6 24 Aug 10:51:28 10:56:06 66° 259° (W) 11:00:41 437.425
CUSAT 1 24 Aug 10:53:19 10:59:29 49° 80° (E) 11:06:50 437.405
ISS 24 Aug 10:53:48 10:56:15 19° 325° (NW) 10:58:42 145.825
DANDE 24 Aug 11:13:34 11:18:03 26° 79° (E) 11:23:31 436.750
AIST 1 24 Aug 11:16:11 11:18:23 14° 286° (WNW) 11:20:35
ESTCUBE 1 24 Aug 11:16:37 11:18:08 11° 93° (E) 11:19:39 437.505/2401.250
QB50P2 24 Aug 11:16:43 11:20:29 30° 72° (ENE) 11:24:14 145.880/145.840
POLYITAN 1 24 Aug 11:19:14 11:23:00 31° 73° (ENE) 11:26:48 437.675
DUCHIFAT 1 24 Aug 11:19:57 11:23:32 27° 72° (ENE) 11:27:07 145.980
ANTELSAT 24 Aug 11:29:35 11:33:23 25° 264° (W) 11:37:09 437.575/2403.000
NANOSAT C BR1 24 Aug 11:31:20 11:35:19 40° 74° (ENE) 11:39:19 145.865
Oscar 11 24 Aug 11:33:14 11:34:26 11° 293° (WNW) 11:35:38 145.826/435.025
FUNcube-1 24 Aug 11:35:46 11:36:29 10° 293° (WNW) 11:37:12 145.935
HUMSAT D 24 Aug 11:36:31 11:40:27 47° 285° (WNW) 11:44:22 437.325/437.525
AISAT 24 Aug 11:41:06 11:42:38 12° 93° (E) 11:44:11 437.250
BEESAT 2 24 Aug 11:53:32 11:56:56 27° 304° (NW) 12:00:21 435.950
RS-15 24 Aug 11:59:53 12:12:21 89° 69° (ENE) 12:24:26 29.354- 29.394
Cosmos 2499 24 Aug 12:00:56 12:07:52 30° 87° (E) 12:14:24 435.465 / 435.565
DELFI C3 24 Aug 12:01:52 12:02:47 11° 292° (WNW) 12:03:42 145.870
TIGRISAT 24 Aug 12:04:25 12:05:42 11° 267° (W) 12:06:57 435.000
GONETS M04 24 Aug 12:07:43 12:15:50 45° 89° (E) 12:24:00
UKube-1 24 Aug 12:10:59 12:12:39 12° 94° (E) 12:14:19 .
QB50P1 24 Aug 12:12:50 12:17:01 55° 260° (W) 12:21:14 145.935-145.965
JAS-2 24 Aug 12:18:49 12:23:53 59° 74° (ENE) 12:29:06 435.910
50 SAT 24 Aug 12:20:16 12:23:33 32° 98° (E) 12:26:50 437.505
PCSat 24 Aug 12:20:59 12:26:09 48° 111° (ESE) 12:31:22 145.827
AUBIESAT-1 24 Aug 12:21:31 12:25:36 71° 288° (WNW) 12:29:19 437.475
POPSAT HIP 1 24 Aug 12:22:37 12:26:41 42° 261° (W) 12:30:46 437.405
M-CUBED/EXP-1 PRIME 24 Aug 12:23:51 12:27:55 51° 290° (WNW) 12:31:38 437.505
VELOX 1 24 Aug 12:26:31 12:30:44 40° 99° (E) 12:34:54 145.980
BUGSAT 1 24 Aug 12:30:25 12:34:39 81° 75° (ENE) 12:38:54 437.445
CUSAT 1 24 Aug 12:36:02 12:41:17 26° 269° (W) 12:47:15 437.405
CUBEBUG 1 24 Aug 12:38:34 12:43:01 73° 101° (ESE) 12:47:24 437.445
JUGNU 24 Aug 12:40:32 12:44:34 19° 170° (S) 12:48:35 437.505
ESTCUBE 1 24 Aug 12:50:46 12:55:09 50° 286° (WNW) 12:59:32 437.505/2401.250
QB50P2 24 Aug 12:53:26 12:56:16 17° 265° (W) 12:59:06 145.880/145.840
DANDE 24 Aug 12:55:37 13:00:39 38° 265° (W) 13:07:01 436.750
POLYITAN 1 24 Aug 12:56:00 12:58:48 17° 265° (W) 13:01:37 437.675
DUCHIFAT 1 24 Aug 12:56:05 12:59:09 19° 265° (W) 13:02:14 145.980
DX 1 24 Aug 12:56:46 13:01:07 61° 101° (E) 13:05:26 434.975-435.025
NANOSAT C BR1 24 Aug 13:09:15 13:11:10 13° 267° (W) 13:13:05 145.865
SPROUT 24 Aug 13:14:09 13:18:26 75° 101° (E) 13:22:40 437.525
AISAT 24 Aug 13:15:01 13:19:19 48° 286° (WNW) 13:23:35 437.250
AIST 2 24 Aug 13:31:56 13:35:59 67° 299° (WNW) 13:40:06 435.215
UKube-1 24 Aug 13:44:44 13:48:51 44° 286° (WNW) 13:52:57 .
TISAT 1 24 Aug 13:47:24 13:51:12 32° 98° (E) 13:54:58 437.305
Oscar 19 24 Aug 13:47:55 13:53:04 90° 138° (SE) 13:58:16 437.125/150
Cosmos 2499 24 Aug 13:52:39 14:00:38 46° 280° (W) 14:08:06 435.465 / 435.565
50 SAT 24 Aug 13:55:27 13:56:48 12° 291° (WNW) 13:58:08 437.505
VELOX 1 24 Aug 14:04:18 14:06:48 15° 293° (WNW) 14:09:18 145.980
GONETS M04 24 Aug 14:05:06 14:12:41 33° 285° (WNW) 14:20:23
PCSat 24 Aug 14:05:53 14:09:47 20° 306° (NW) 14:13:41 145.827
JAS-2 24 Aug 14:08:05 14:09:27 11° 268° (W) 14:10:49 435.910
SRMSAT 24 Aug 14:11:05 14:14:12 15° 165° (SSE) 14:17:21 437.500
RS-15 24 Aug 14:15:24 14:23:07 20° 261° (W) 14:30:45 29.354- 29.394
Gurwin Techsat 1B 24 Aug 14:28:11 14:33:30 83° 257° (WSW) 14:38:51 435.225
JUGNU 24 Aug 14:28:23 14:32:58 23° 180° (S) 14:37:33 437.505
SWISSCUBE 24 Aug 14:44:11 14:48:17 28° 98° (E) 14:52:22 437.505
AO-85 24 Aug 14:49:35 14:51:39 13° 49° (NE) 14:53:39 145.980
O/OREOS (USA 219) 24 Aug 14:52:21 14:56:49 82° 289° (WNW) 15:01:20 437.305
ITAMSAT 1 24 Aug 14:54:04 14:59:04 50° 73° (ENE) 15:04:04 435.822/435.867
BEESAT 24 Aug 15:01:28 15:05:56 40° 99° (E) 15:10:23 436.000
AO-7 24 Aug 15:06:49 15:14:34 44° 65° (ENE) 15:22:17 29.400- 29.500
TISAT 1 24 Aug 15:23:59 15:26:32 16° 292° (WNW) 15:29:04 437.305
ITUPSAT 1 24 Aug 15:46:12 15:50:56 65° 285° (WNW) 15:55:38 437.325
MOZHAYETS 4 24 Aug 15:48:45 15:51:37 16° 94° (E) 15:54:29
SRMSAT 24 Aug 15:58:16 16:02:44 22° 175° (S) 16:07:13 437.500
KKS-1 24 Aug 16:09:16 16:12:38 21° 96° (E) 16:15:59 437.445
JUGNU 24 Aug 16:17:19 16:21:23 19° 190° (S) 16:25:25 437.505
SWISSCUBE 24 Aug 16:22:10 16:25:53 23° 291° (WNW) 16:29:36 437.505
HORYU 2 24 Aug 16:25:44 16:28:45 18° 69° (ENE) 16:31:48 437.375
AO-85 24 Aug 16:28:27 16:32:21 43° 247° (WSW) 16:36:03 145.980
ITAMSAT 1 24 Aug 16:35:49 16:38:44 15° 266° (W) 16:41:40 435.822/435.867
BEESAT 24 Aug 16:40:19 16:43:21 17° 293° (WNW) 16:46:23 436.000
STARS 24 Aug 16:54:42 16:58:39 32° 98° (E) 17:02:35 437.465
BRITE-PL 24 Aug 16:56:44 16:59:13 14° 65° (ENE) 17:01:46 437.365/2234.400
AO-7 24 Aug 16:59:48 17:07:15 36° 260° (W) 17:14:47 29.400- 29.500
CUBESAT XI-V 24 Aug 17:00:17 17:01:38 11° 92° (E) 17:02:58 437.345
CUTE-I 24 Aug 17:11:56 17:13:14 11° 63° (ENE) 17:14:32 437.470
NOAA 18 24 Aug 17:20:12 17:22:45 13° 63° (ENE) 17:25:19 137.9125
NOAA 15 24 Aug 17:22:30 17:26:08 19° 67° (ENE) 17:29:46 137.62
ISS 24 Aug 17:23:57 17:27:08 51° 42° (NE) 17:30:18 145.825
MOZHAYETS 4 24 Aug 17:24:40 17:28:51 36° 287° (WNW) 17:33:01
Cosmos 2491 24 Aug 17:44:28 17:51:06 25° 83° (E) 17:57:43 435.465 / 435.565
KKS-1 24 Aug 17:45:22 17:49:08 27° 289° (WNW) 17:52:52 437.445
SRMSAT 24 Aug 17:46:50 17:51:20 22° 185° (S) 17:55:49 437.500
HORYU 2 24 Aug 18:01:01 18:05:02 32° 262° (W) 18:09:04 437.375
YUBILEINY 24 Aug 18:08:47 18:17:29 63° 82° (E) 18:26:04 435.215
GOMX 1 24 Aug 18:26:26 18:31:12 59° 75° (ENE) 18:36:20 467.674
STARS 24 Aug 18:31:49 18:34:43 17° 292° (WNW) 18:37:36 437.465
BRITE-PL 24 Aug 18:32:41 18:37:06 48° 262° (W) 18:41:55 437.365/2234.400
Cubesat XI-IV 24 Aug 18:34:10 18:39:31 78° 75° (ENE) 18:44:52 437.490
CUBESAT XI-V 24 Aug 18:34:40 18:39:16 56° 285° (WNW) 18:43:51 437.345
LilacSat-2 24 Aug 18:37:57 18:41:49 90° 264° (W) 18:45:41 437.200
Cosmos 2504 24 Aug 18:42:18 18:48:34 31° 76° (ENE) 18:54:44 435.465 / 435.565
CUTE-I 24 Aug 18:47:12 18:52:33 78° 258° (WSW) 18:57:54 437.470
DOVE 4 24 Aug 18:50:59 18:55:47 47° 73° (ENE) 19:00:48 437.250
NOAA 18 24 Aug 18:57:14 19:02:45 69° 257° (WSW) 19:08:17 137.9125
HO-68 24 Aug 18:59:46 19:05:10 23° 63° (ENE) 19:10:33 435.675
NOAA 15 24 Aug 19:00:36 19:05:32 42° 261° (W) 19:10:31 137.62
BEESAT 3 24 Aug 19:04:31 19:06:16 12° 51° (NE) 19:07:59 437.485
SRMSAT 24 Aug 19:36:41 19:39:51 15° 195° (SSW) 19:43:01 437.500
Cosmos 2491 24 Aug 19:38:45 19:47:14 57° 280° (W) 19:55:49 435.465 / 435.565
SEEDS 24 Aug 19:52:01 19:55:27 25° 72° (ENE) 19:58:52 437.485
CINEMA 3 24 Aug 19:57:11 20:02:08 66° 76° (ENE) 20:07:06 145.822/145.860
CANX-2 24 Aug 20:05:31 20:09:41 68° 77° (ENE) 20:13:52 2200.000
YUBILEINY 24 Aug 20:07:12 20:13:27 22° 278° (W) 20:19:40 435.215
STRAND 1 24 Aug 20:07:20 20:12:24 62° 101° (ESE) 20:17:26 437.568
GOMX 1 24 Aug 20:07:55 20:09:42 12° 270° (W) 20:11:32 467.674
CUTE 1.7 + AOD 2 24 Aug 20:12:20 20:16:30 70° 77° (ENE) 20:20:42 437.475
BEESAT 2 24 Aug 20:15:09 20:18:54 37° 58° (ENE) 20:22:37 435.950
DOVE 4 24 Aug 20:30:39 20:33:40 16° 268° (W) 20:36:47 437.250
AAUSAT CUBESAT 2 24 Aug 20:32:43 20:36:34 41° 74° (ENE) 20:40:26 437.432
Cosmos 2504 24 Aug 20:35:26 20:41:50 36° 272° (W) 20:48:12 435.465 / 435.565
COMPASS 1 24 Aug 20:37:03 20:41:07 63° 76° (ENE) 20:45:12 437.405
CUBEBUG 2 24 Aug 20:38:53 20:43:28 50° 75° (ENE) 20:47:59 437.445
BEESAT 3 24 Aug 20:40:20 20:44:09 46° 245° (WSW) 20:47:56 437.485
UWE-3 24 Aug 20:44:14 20:48:29 37° 73° (ENE) 20:52:40 435.000/436.395/437.385
HO-68 24 Aug 20:45:17 20:52:19 57° 258° (WSW) 20:59:24 435.675
Oscar 11 24 Aug 20:45:26 20:48:45 22° 71° (ENE) 20:52:05 145.826/435.025
FUNcube-1 24 Aug 20:47:56 20:51:27 23° 71° (ENE) 20:54:56 145.935
ZACube-1 24 Aug 21:06:39 21:10:53 41° 74° (ENE) 21:15:03 437.345
DELFI C3 24 Aug 21:07:30 21:09:34 14° 69° (ENE) 21:11:38 145.870
PCSat 24 Aug 21:14:40 21:17:59 16° 52° (NE) 21:21:17 145.827
PRISM 24 Aug 21:24:38 21:28:37 42° 100° (E) 21:32:35 437.425
AIST 1 24 Aug 21:25:20 21:29:46 87° 260° (W) 21:34:07
SEEDS 24 Aug 21:28:04 21:31:04 19° 265° (W) 21:34:04 437.485
CINEMA 3 24 Aug 21:38:26 21:39:35 11° 269° (W) 21:40:43 145.822/145.860
STRAND 1 24 Aug 21:48:48 21:50:59 13° 295° (WNW) 21:53:11 437.568
BEESAT 2 24 Aug 21:54:24 21:56:21 13° 251° (WSW) 21:58:17 435.950
AIST 2 24 Aug 21:58:10 22:01:16 20° 54° (NE) 22:04:22 435.215
AAUSAT CUBESAT 2 24 Aug 22:10:55 22:12:11 11° 267° (W) 22:13:28 437.432
CUBEBUG 2 24 Aug 22:18:11 22:20:15 13° 267° (W) 22:22:18 437.445
Oscar 11 24 Aug 22:21:14 22:24:44 24° 264° (W) 22:28:14 145.826/435.025
TIGRISAT 24 Aug 22:21:57 22:24:25 15° 94° (E) 22:26:51 435.000
UWE-3 24 Aug 22:22:02 22:24:58 17° 266° (W) 22:27:53 435.000/436.395/437.385
HUMSAT D 24 Aug 22:22:41 22:26:49 60° 76° (ENE) 22:30:55 437.325/437.525
FUNcube-1 24 Aug 22:23:48 22:27:32 25° 263° (W) 22:31:13 145.935
GONETS M04 24 Aug 22:25:22 22:30:39 17° 68° (ENE) 22:35:54
DELFI C3 24 Aug 22:40:35 22:44:05 31° 262° (W) 22:47:37 145.870
ZACube-1 24 Aug 22:44:53 22:47:15 14° 266° (W) 22:49:37 437.345
UNISAT 6 24 Aug 22:48:12 22:52:06 34° 98° (E) 22:55:59 437.425
PCSat 24 Aug 22:56:26 23:01:46 62° 248° (WSW) 23:07:05 145.827
PRISM 24 Aug 23:01:44 23:03:29 12° 293° (WNW) 23:05:15 437.425
AUBIESAT-1 24 Aug 23:01:46 23:06:16 65° 71° (ENE) 23:10:53 437.475
M-CUBED/EXP-1 PRIME 24 Aug 23:04:23 23:08:57 87° 74° (ENE) 23:13:42 437.505
VELOX 1 24 Aug 23:19:58 23:23:15 21° 69° (ENE) 23:26:33 145.980
SO-50 24 Aug 23:20:47 23:23:42 16° 108° (ESE) 23:26:36 436.795
ANTELSAT 24 Aug 23:25:01 23:29:19 80° 283° (WNW) 23:33:33 437.575/2403.000
